Tracking 23099 objects as of 12-May-2021
HD Live streaming from Space Station
objects crossing your sky now

ATLAS D DEB

Track ATLAS D DEB now!
10-day predictions


NORAD ID: 2327
Int'l Code: 1966-063B
Perigee: 880.8 km
Apogee: 920.3 km
Inclination: 144.2 °
Period: 102.8 minutes
Semi major axis: 7271 km
RCS: 0.284 m2 (medium)
Launch date: July 14, 1966
Source: United States (US)
Launch site: AIR FORCE WESTERN TEST RANGE (AFWTR)

Note: This is SATELLITE DEBRIS
aabbcc
Your satellite tracking list
Your tracking list is empty




NASA's NSSDC Master Catalog

Two Line Element Set (TLE):
1 02327U 66063B   21132.54008620  .00000667  00000-0  26679-3 0  9991
2 02327 144.1989  86.1342 0027137   4.8822 355.2132 14.00113866776663
Source of the keplerian elements: AFSPC